SWAS (25560 NORAD) Tracking and Keplerian Element Data

This shows tracking and keplerian element data for the satellite.

Feedback or suggestion? Click here.




ElementValue
Catalog25560
NameSWAS
Epoch Orbit42212
Epoch Day34.47514197
Epoch Year2025
RAAN68.8287
Inclination69.8968
Eccentricity0.0009761
Argument of Perigee294.4693
Mean Anonmoly65.545
Mean Motion15.04335099
Decay Rate6.784E-05
L11 25560U 98071A 25034.47514197 .00006784 00000+0 49187-3 0 9991
L22 25560 69.8968 68.8287 0009761 294.4693 65.5450 15.04335099422120



Live tracking and technical data element details for SWAS (NORAD 25560). SWAS can be tracked NOW for your location showing map with azimuth and elevation plus other details from your city location.







IsCatalogInMostPopularTable: catalog: 25560, numindb: 478
Update: records affected: 1



GetName: 25560 SWAS

Hit Count: updated at: Thu, 22 May 2025 04:23:26 GMT